Location: Easter Hill Village
(37.9235°N, 122.3444°W)
Time: 04:54:08
(UTC+00:00)

PSLV R/B - Pass Details

Date: 16 September 2019
Orbit: 504 x 581 km, 97.8° (Epoch: 17 October)

Event Time Altitude Azimuth Distance (km) Brightness Sun altitude
Rises 13:15:26 0° 8° (N) 2,780 7.6 -8.0°
Reaches altitude 10° 13:17:38 10° 4° (N) 1,869 6.7 -7.5°
Maximum altitude 13:21:36 59° 285° (WNW) 647 3.9 -6.8°
Drops below altitude 10° 13:25:28 10° 206° (SSW) 1,813 6.1 -6.0°
Sets 13:27:34 0° 202° (SSW) 2,688 7.0 -5.6°
